COSMOS 970 DEB, 64995

Orbit data source: Space-Track

COSMOS 970 DEB, 64995 is space debris in LEO originally from a launch on Wed, 21 Dec 1977 UTC launched from the Tyuratam Missile And Space Complex (TTMTR). Debris objects in space refer to the collection of defunct objects orbiting the Earth. Examples of debris include non-operational satellites, rocket bodies, and fragments generated from explosions, collisions, or faulty payload assembly.

Loading next visibility...
Identifier
64995, 1977-121DG
Orbit
LEO
Country
Flag of CISCIS
Related business
Manufacturer
Unknown
Mission
Spacecraft
Bus & Motor
Unknown
Mass
Unknown
Launch date (UTC)
1977-12-21 (48 years ago)
Launch vehicle
Unknown
Launch site
Tyuratam Missile And Space Complex (TTMTR)
Object type
Payload
Rocket body
Debris
Shape & HBR
Unknown shape, 0.1 m
Radar Cross Section
Small (<0.1 m²)

Expand to show TLE details & history
Last TLE update: 1 day ago

TLE from 1 day ago
0 COSMOS 970 DEB
1 64995U 77121DG  26170.35782345 -.00000047  00000-0  39665-4 0  9999
2 64995  65.8006 191.4818 0110354  45.7997 315.2057 13.59151641578927
Epoch: 2026-06-19T08:35Z
TLE epoch observation values (Epoch: 2026-06-19T08:35:15.946Z)
Latitude
-0.00005°
Longitude
155.07738°
Altitude
983.109 km
Speed
7.389 km/s
True Right ascension
12h 45m 55s
True Declination
0° 00' 00"
Sunlit
Object was in daylight at epoch
Visualization orbit readout
Latitude
Unknown
Longitude
Unknown
Altitude
Unknown
Speed
Unknown
Apparent Right ascension
Unknown
Apparent Declination
Unknown
Sunlit
N/A
Visualization observer readout
Local Sidereal Time
07:12:36
Azimuth
Unknown
Elevation
Unknown
Doppler factor
Unknown
Orbital elements
Apogee altitude
1,119.141 km
Perigee altitude
955.477 km
Semi-major axis
7,415.446 km
Eccentricity
0.01104
Inclination
65.8006°
RAAN
191.4818°
Arg. of periapsis
45.7997°
True anomaly
314.30597°
Mean anomaly
315.2057°
Eccentric anomaly
314.75671°
Mean motion
3.39889 °/min
Orbital period
105.92 mins
BSTAR
0.000039665
Loading maneuver chart data...
Computing Atmospheric mass density...
Loading historical data...
Loading historical data...
Loading historical data...
Loading historical data...
Loading historical data...
Loading historical data...
Loading historical data...

Documentation

Showing up to 5 results
|